Location: Potawatomi Wildlife Park
(41.2308°N, 86.1050°W)
Time: 16:49:37
(UTC-04:00)

Hubble Space Telescope - Visible Passes

Search period start: 26 March 2017 00:00
Search period end: 05 April 2017 00:00
Orbit: 538 x 542 km, 28.5° (Epoch: 25 March)

Date Brightness Start Highest point End Pass type
(mag) Time Alt. Az. Time Alt. Az. Time Alt. Az.
26 Mar 3.2 07:02:41 10° S 07:04:04 11° S 07:05:27 10° SSE visible
27 Mar 3.1 06:52:09 10° SSW 06:53:55 12° S 06:55:42 10° SSE visible
28 Mar 3.1 06:41:48 10° SSW 06:43:47 13° S 06:45:47 10° SE visible
29 Mar 3.0 06:31:33 10° SSW 06:33:39 14° S 06:35:46 10° SSE visible
30 Mar 2.9 06:21:53 11° SSW 06:23:31 14° S 06:25:40 10° SSE visible
31 Mar 2.8 06:12:23 13° SSW 06:13:23 14° S 06:15:30 10° SSE visible
01 Apr 2.9 06:02:56 13° S 06:03:15 13° S 06:05:15 10° SSE visible
02 Apr 3.0 05:53:32 12° S 05:53:32 12° S 05:54:53 10° SSE visible
03 Apr 3.2 05:44:12 10° S 05:44:12 10° S 05:44:22 10° S visible
